La Ceiba, Honduras

2:52 AM CST on January 23, 2018 (GMT -0600)
Goloson International

Weather History for MHLC - April, 2014

Change the Weather History Date:

Tuesday, April 8, 2014

  Actual Average Record
Temperature  
Mean Temperature 80 °F -  
Max Temperature 89 °F 85 °F 89 °F (1998)
Min Temperature 71 °F 70 °F 66 °F (1999)
Cooling Degree Days 15    
Growing Degree Days 30 (Base 50)    
Moisture  
Dew Point 75 °F    
Average Humidity 80    
Maximum Humidity 94    
Minimum Humidity 62    
Precipitation  
Precipitation 3.62 in 0.14 in - ()
Sea Level Pressure  
Sea Level Pressure 29.88 in    
Wind  
Wind Speed 4 mph ()    
Max Wind Speed 16 mph    
Max Gust Speed -    
Visibility 4.5 miles    
Events Rain , Thunderstorm    
Averages and records for this station are not official NWS values.
T = Trace of Precipitation, MM = Missing Value Source: Averaged Metar Reports

Daily Weather History Graph

Daily Weather History Graph

Search for Another Location

Airport or City:

Trip Planner

Search our weather history database for the weather conditions in past years. The results will help you decide how hot, cold, wet, or windy it might be!

Date:

Astronomy

Apr. 08, 2014 Rise Set
Actual Time 5:37 AM CST 6:01 PM CST
Civil Twilight 5:15 AM CST 6:22 PM CST
Nautical Twilight 4:50 AM CST 6:48 PM CST
Astronomical Twilight 4:25 AM CST 7:13 PM CST
Moon 12:45 PM CST (4/8) 12:56 AM CST (4/8)
Length of Visible Light 13h 06m
Length of Day
12h 23m
Waxing Gibbous, 63% of the Moon is Illuminated
Apr 8
Waxing Gibbous
Apr 15
Full
Apr 22
Last Quarter
Apr 29
New
May 6
First Quarter

Hourly Weather History & Observations

Time (CST) Temp. Heat Index Dew Point Humidity Pressure Visibility Wind Dir Wind Speed Gust Speed Precip Events Conditions
12:00 AM 75 °F - 72 °F 87% 29.75 in 6 mi Calm Calm - -   Haze
12:00 AM 75.2 °F - 71.6 °F 89% 29.74 in 6.2 mi Calm Calm - N/A   Clear
1:00 AM 75.2 °F - 71.6 °F 89% 29.74 in 6.2 mi Variable 2.3 mph - N/A   Clear
2:00 AM 71.6 °F - 69.8 °F 94% 29.74 in 6.2 mi Calm Calm - N/A   Clear
3:00 AM - - - %  in - Calm Calm - -  
4:00 AM 71.6 °F - 69.8 °F 94% 29.77 in 6.2 mi SE 3.5 mph - N/A   Clear
5:00 AM 73.4 °F - 71.6 °F 94% 29.80 in 6.2 mi SSE 3.5 mph - N/A   Clear
6:00 AM 74 °F - 72 °F 91% 29.83 in 2 mi Calm Calm - -   Smoke
6:00 AM 73.4 °F - 71.6 °F 94% 29.83 in 2.5 mi Calm Calm - N/A   Smoke
7:00 AM 78.8 °F - 73.4 °F 83% 29.86 in 3.1 mi South 8.1 mph - N/A   Smoke
8:00 AM 82.4 °F 89.5 °F 75.2 °F 79% 29.89 in 3.7 mi South 6.9 mph - N/A   Mostly Cloudy
9:00 AM 86 °F - 75 °F 62% 29.92 in 4 mi SW 6.9 mph - -   Smoke
9:00 AM 86.0 °F 95.1 °F 75.2 °F 70% 29.92 in 3.7 mi SW 6.9 mph - N/A   Partly Cloudy
10:00 AM 87.8 °F 97.6 °F 75.2 °F 66% 29.92 in 3.7 mi WSW 6.9 mph - N/A   Partly Cloudy
11:00 AM 87.8 °F 97.6 °F 75.2 °F 66% 29.92 in 3.7 mi West 8.1 mph - N/A   Partly Cloudy
12:00 PM 87 °F - 77 °F 64% 29.90 in 4 mi WNW 8.1 mph - -   Smoke
12:00 PM 87.8 °F 99.7 °F 77.0 °F 70% 29.89 in 4.3 mi WNW 8.1 mph - N/A   Partly Cloudy
1:00 PM 87.8 °F 99.7 °F 77.0 °F 70% 29.86 in 4.3 mi West 8.1 mph - N/A   Partly Cloudy
2:00 PM 87.8 °F 99.7 °F 77.0 °F 70% 29.86 in 5.0 mi West 6.9 mph - N/A   Scattered Clouds
3:00 PM 88 °F - 80 °F 71% 29.88 in 5 mi WSW 5.8 mph - -   Smoke
3:00 PM 87.8 °F 104.9 °F 80.6 °F 79% 29.86 in 5.0 mi WSW 5.8 mph - N/A   Scattered Clouds
4:00 PM 87.8 °F 102.5 °F 78.8 °F 75% 29.86 in 5.0 mi SSW 4.6 mph - N/A   Mostly Cloudy
5:00 PM 86.0 °F 99.3 °F 78.8 °F 79% 29.89 in 5.0 mi SW 6.9 mph - N/A   Scattered Clouds
6:00 PM 86 °F - 78 °F 72% 29.91 in 5 mi SW 5.8 mph - -   Smoke
6:00 PM 86.0 °F 99.3 °F 78.8 °F 79% 29.89 in 5.0 mi SW 5.8 mph - N/A   Mostly Cloudy
7:00 PM 84.2 °F 94.1 °F 77.0 °F 79% 29.92 in 6.2 mi SSE 4.6 mph - N/A   Mostly Cloudy
8:00 PM 84.2 °F 94.1 °F 77.0 °F 79% 29.95 in 6.2 mi SSE 4.6 mph - N/A   Mostly Cloudy
9:00 PM 82 °F - 77 °F 81% 29.96 in 6 mi SSW 2.3 mph - - Thunderstorm Thunderstorm
9:00 PM 82.4 °F 90.9 °F 77.0 °F 84% 29.95 in 6.2 mi SSW 2.3 mph - N/A Thunderstorm Thunderstorm
9:05 PM 75.2 °F - 73.4 °F 94% 29.98 in 1.2 mi South 16.1 mph - N/A Rain , Thunderstorm Heavy Thunderstorms and Rain
10:00 PM 71.6 °F - 69.8 °F 94% 30.06 in 0.6 mi ENE 11.5 mph - N/A Rain , Thunderstorm Heavy Thunderstorms and Rain
11:00 PM 71.6 °F - 69.8 °F 94% 30.15 in 1.2 mi South 13.8 mph - N/A Thunderstorm Thunderstorm